Location: Betpouey
(42.8833°N, 0.0333°E)
Time: 07:37:21
(UTC+00:00)

Meteor 1-4 Rocket - Pass Details

Date: 01 December 2020
Orbit: 449 x 500 km, 81.2° (Epoch: 17 January)

Event Time Altitude Azimuth Distance (km) Brightness Sun altitude
Rises 17:28:34 0° 183° (S) 2,525 6.5 -11.1°
Reaches altitude 10° 17:30:40 10° 181° (S) 1,642 5.5 -11.5°
Maximum altitude 17:34:14 68° 98° (E) 510 2.4 -12.1°
Drops below altitude 10° 17:37:46 10° 15° (NNE) 1,627 4.9 -12.7°
Enters shadow 17:38:33 - 14° (NNE) 1,952 5.3 -12.9°
